Temperature
-0 -0 -0 -0 -0 0 0 1 1 1 1 1 1 1 2 2 2 2 2 2 2 3 3 3 3 3 3 3 3 3 3 3 3 3 3 3 3 3 3 3 3 4 4
-1 -1 -1 -1 -1 -0 -0 -0 0 0 0 1 1 1 1 1 1 2 2 2 2 2 2 2 2 2 2 2 2 2 2 2 2 2 2 2 3 3 3 3 3 3 3
-2 -2 -1 -1 -1 -1 -1 -0 -0 -0 -0 0 0 0 0 1 1 1 1 1 2 2 2 2 2 2 2 2 2 2 2 2 2 2 2 2 2 2 2 2 2 2 2
-2 -2 -2 -2 -2 -1 -1 -1 -1 -1 -1 -1 -0 -0 -0 0 0 1 1 1 1 1 1 1 1 1 1 1 1 1 1 1 1 1 1 1 1 1 1 1 2 2 2
-2 -2 -3 -2 -2 -2 -2 -2 -2 -1 -1 -1 -1 -1 -1 -0 -0 -0 0 0 1 1 1 1 1 1 1 1 1 1 1 1 1 1 1 0 1 1 1 1 1 1 1
-3 -3 -3 -3 -3 -3 -2 -2 -2 -2 -2 -2 -1 -1 -1 -1 -1 -1 -1 -0 -0 0 0 1 1 1 1 1 1 1 0 0 0 0 0 0 0 0 0 0 0 0 0
-3 -3 -3 -3 -3 -3 -3 -3 -3 -2 -2 -2 -2 -2 -2 -1 -1 -1 -1 -1 -1 -0 -0 0 0 0 0 0 0 0 0 0 0 -0 -0 0 -0 -0 -0 -0 -0 -0 -0
-4 -4 -4 -4 -3 -3 -3 -3 -3 -3 -3 -3 -2 -2 -2 -2 -2 -2 -1 -1 -1 -1 -0 -0 -0 -0 -0 -0 -0 -0 -0 -0 -0 -0 -0 -0 -1 -1 -1 -1 -1 -1 -1
-4 -4 -4 -4 -4 -4 -4 -3 -3 -3 -3 -3 -3 -3 -3 -2 -2 -2 -2 -2 -2 -1 -1 -1 -1 -1 -1 -1 -1 -1 -1 -1 -1 -1 -1 -1 -1 -1 -1 -2 -2 -2 -2
-5 -5 -5 -4 -4 -4 -4 -4 -4 -4 -3 -3 -3 -3 -3 -3 -3 -3 -2 -2 -2 -2 -2 -2 -2 -2 -1 -1 -1 -1 -1 -1 -1 -1 -1 -1 -1 -2 -2 -2 -2 -2 -2
-5 -5 -5 -5 -5 -4 -4 -4 -4 -4 -4 -4 -4 -4 -4 -3 -3 -3 -3 -3 -3 -3 -2 -2 -2 -2 -2 -2 -2 -2 -2 -2 -2 -2 -2 -2 -2 -2 -2 -2 -2 -2 -3
-6 -6 -5 -5 -5 -5 -5 -5 -4 -4 -4 -4 -4 -4 -4 -4 -4 -3 -3 -3 -3 -3 -3 -3 -3 -2 -2 -2 -2 -2 -2 -2 -2 -2 -3 -3 -2 -3 -2 -3 -3 -3 -3
-6 -6 -6 -6 -6 -6 -5 -5 -5 -5 -5 -5 -5 -5 -5 -4 -4 -4 -4 -3 -3 -3 -3 -3 -3 -3 -3 -3 -3 -3 -3 -3 -3 -3 -3 -3 -3 -3 -3 -3 -3 -3 -3
-7 -6 -6 -6 -6 -6 -6 -6 -6 -6 -6 -6 -6 -6 -5 -5 -5 -5 -4 -4 -4 -4 -4 -4 -3 -3 -3 -3 -3 -3 -3 -3 -4 -4 -4 -3 -3 -4 -4 -4 -4 -4 -4
-7 -7 -7 -7 -7 -7 -7 -7 -7 -7 -7 -7 -6 -6 -6 -6 -6 -5 -5 -5 -4 -4 -4 -4 -4 -4 -4 -4 -4 -4 -4 -4 -4 -4 -4 -4 -4 -4 -4 -4 -5 -5 -5
-7 -7 -8 -8 -8 -8 -8 -7 -7 -7 -7 -7 -7 -7 -7 -7 -6 -6 -6 -6 -5 -5 -5 -5 -5 -5 -5 -5 -5 -5 -4 -4 -5 -5 -5 -5 -5 -5 -5 -5 -5 -5 -5
-8 -8 -8 -8 -8 -8 -8 -8 -8 -7 -7 -7 -7 -7 -7 -7 -7 -7 -6 -6 -6 -6 -6 -5 -5 -5 -5 -5 -5 -5 -5 -5 -5 -5 -5 -5 -5 -6 -6 -6 -6 -6 -6
-9 -9 -9 -9 -9 -9 -9 -9 -8 -8 -8 -8 -8 -8 -8 -7 -7 -7 -7 -7 -7 -6 -6 -6 -6 -6 -6 -6 -6 -6 -6 -6 -6 -6 -6 -6 -6 -6 -6 -6 -6 -6 -6
-9 -9 -9 -9 -9 -9 -9 -9 -9 -9 -9 -9 -8 -8 -8 -8 -8 -7 -7 -7 -7 -7 -7 -7 -7 -7 -7 -7 -7 -7 -7 -6 -6 -7 -7 -7 -7 -7 -7 -7 -7 -7 -7
-9 -9 -9 -9 -9 -9 -9 -9 -9 -9 -9 -9 -9 -9 -9 -8 -8 -8 -8 -8 -8 -8 -8 -8 -8 -8 -8 -7 -7 -7 -7 -7 -7 -7 -7 -7 -7 -7 -7 -7 -8 -7 -7
-10 -10 -10 -10 -10 -10 -10 -10 -10 -10 -10 -10 -10 -10 -10 -9 -9 -9 -9 -9 -9 -9 -9 -9 -8 -8 -8 -8 -8 -8 -8 -8 -8 -8 -8 -8 -8 -8 -8 -8 -8 -8 -8
-10 -10 -10 -10 -10 -10 -10 -10 -10 -11 -11 -11 -11 -10 -10 -10 -10 -10 -10 -10 -10 -9 -9 -9 -9 -9 -9 -9 -9 -8 -8 -8 -8 -8 -8 -8 -8 -8 -8 -9 -9 -9 -9
-11 -11 -11 -11 -11 -11 -11 -11 -11 -11 -11 -11 -11 -11 -11 -11 -11 -10 -10 -10 -10 -10 -10 -10 -10 -10 -9 -9 -9 -9 -9 -9 -9 -9 -9 -9 -9 -9 -9 -9 -9 -9 -9
-11 -11 -11 -11 -11 -11 -11 -11 -11 -11 -11 -11 -11 -11 -11 -11 -11 -11 -11 -11 -11 -11 -10 -10 -10 -10 -10 -10 -10 -10 -9 -9 -9 -9 -9 -9 -9 -9 -9 -9 -9 -9 -9
-11 -11 -11 -11 -11 -11 -11 -11 -11 -11 -11 -11 -11 -11 -11 -11 -11 -11 -11 -11 -11 -11 -11 -11 -11 -10 -10 -10 -10 -10 -10 -10 -10 -10 -10 -10 -10 -10 -10 -10 -10 -10 -10
-12 -12 -12 -12 -12 -12 -12 -12 -12 -12 -12 -12 -12 -12 -12 -11 -11 -11 -11 -11 -11 -11 -11 -11 -11 -11 -11 -10 -10 -10 -10 -10 -10 -10 -10 -10 -10 -10 -10 -10 -10 -10 -10
Wind_Speed
2 2 2 1 1 1 1 2 2 2 2 2 2 2 2 2 2 2 3 3 4 4 4 4 4 3 3 3 2 2 2 2 3 3 2 2 2 2 3 4 4 4 5
2 2 2 2 1 1 2 2 2 2 2 2 2 2 3 3 3 3 4 3 4 5 5 5 5 4 4 3 3 3 3 2 2 3 3 2 2 2 2 2 2 3 3
2 2 2 2 2 2 2 2 2 2 2 2 2 3 3 3 4 4 4 4 4 6 6 6 6 5 5 3 4 3 3 2 2 3 3 2 2 2 1 2 2 2 3
2 2 2 2 2 2 2 1 2 2 2 2 3 3 3 3 3 4 4 4 4 5 6 6 6 6 6 6 5 4 3 3 2 2 3 3 2 2 1 2 2 2 2
2 2 3 3 2 2 2 1 2 2 2 2 2 2 3 3 3 4 4 4 4 5 5 5 6 6 7 6 5 5 5 3 3 3 3 3 2 2 3 2 3 2 3
2 3 3 3 3 3 3 2 2 2 2 2 2 2 3 3 4 4 4 4 4 5 5 4 5 5 6 6 6 6 6 5 5 4 4 4 4 3 2 2 2 2 3
2 3 3 3 4 4 3 2 2 2 2 2 3 3 3 4 4 4 5 3 4 4 5 5 4 5 5 5 5 6 6 7 7 5 5 6 5 5 4 3 3 3 4
3 3 3 3 4 3 2 2 2 2 2 3 3 3 3 4 5 4 4 3 3 3 4 5 5 5 5 5 5 5 5 5 6 5 6 6 5 5 5 5 4 3 3
4 4 4 3 3 3 3 3 2 2 2 3 3 3 3 4 5 5 4 2 3 3 3 4 4 4 6 6 5 5 4 3 4 5 6 6 7 7 6 3 3 3 4
5 5 4 3 3 3 3 3 2 2 3 3 3 3 4 4 5 5 4 3 3 3 3 4 5 5 6 5 5 5 5 4 3 2 2 3 3 5 6 5 4 4 3
5 5 4 4 3 3 3 2 2 2 2 2 3 3 3 4 5 6 5 3 3 3 3 3 3 5 6 6 5 5 6 4 4 3 2 2 1 2 2 3 3 4 4
4 4 4 4 3 3 2 2 1 2 2 2 2 3 3 3 4 4 6 5 4 3 3 3 3 5 5 5 4 4 4 3 3 3 2 3 2 2 2 2 2 2 3
4 4 4 4 3 3 2 2 2 1 1 2 2 3 3 2 3 4 5 5 5 3 3 4 4 4 3 3 3 2 2 2 3 3 3 3 2 2 2 1 1 1 0
4 4 3 3 3 3 3 2 2 1 1 2 2 3 3 3 2 2 3 3 4 3 2 3 3 3 2 2 2 2 2 2 3 3 3 2 1 1 2 2 2 2 1
4 4 3 3 3 2 2 2 2 2 3 3 3 3 3 3 4 5 3 2 2 3 2 1 0 1 1 1 1 1 1 2 2 2 2 2 2 2 2 2 2 2 2
4 4 3 2 2 2 2 3 4 4 5 5 4 4 3 5 6 5 5 5 4 3 1 1 1 1 2 2 2 1 1 2 2 2 2 2 3 3 2 2 2 2 3
3 4 3 2 2 2 2 2 3 4 5 5 5 5 5 5 6 5 5 4 4 3 1 0 1 1 1 1 2 2 2 2 1 2 2 2 2 2 2 2 2 2 3
4 4 3 2 2 2 2 2 2 3 4 4 5 6 6 6 6 6 5 3 2 2 1 1 1 1 1 1 1 1 1 1 1 1 2 2 2 3 3 3 3 3 3
3 3 2 2 2 2 2 2 2 2 3 3 4 4 6 6 6 6 5 2 1 1 1 1 1 1 1 1 1 1 1 1 2 2 2 2 2 2 3 3 3 4 3
3 4 3 2 2 2 2 2 2 2 2 2 3 3 4 3 3 3 3 2 2 2 2 1 1 1 1 1 1 1 1 1 2 2 2 2 2 2 3 3 3 3 3
2 3 4 3 2 2 2 2 2 2 2 2 3 3 4 2 2 2 2 2 2 2 2 2 1 1 1 1 1 2 2 2 2 3 3 2 2 2 2 3 3 3 3
2 2 2 2 2 2 2 2 2 2 2 3 3 4 5 3 2 2 2 3 2 2 2 2 2 2 2 2 2 2 3 3 3 3 3 3 2 3 3 3 3 3 3
2 2 2 2 2 3 3 2 2 2 2 2 3 3 3 2 2 3 3 3 3 3 2 2 2 3 3 3 4 3 4 4 4 4 3 3 3 3 3 3 3 3 3
2 2 2 3 3 2 2 3 3 3 3 3 3 3 3 3 3 3 3 3 3 3 3 3 3 4 5 5 5 5 5 5 5 5 5 4 4 3 3 3 4 4 4
2 2 3 3 3 3 3 3 3 3 3 3 3 3 3 3 3 3 3 3 3 3 4 4 4 4 5 6 6 6 7 7 6 5 5 4 4 4 4 4 4 4 4
2 3 3 3 3 3 3 3 4 4 4 4 4 3 3 3 3 3 3 3 3 3 4 4 5 6 7 7 7 7 8 8 8 7 5 4 4 4 4 4 4 4 4
Wind_Direction
314 318 319 315 317 295 251 248 242 243 238 211 213 221 222 215 208 200 206 210 209 213 204 199 209 193 189 192 192 192 203 201 240 273 279 285 269 273 280 271 259 255 254
313 312 304 310 322 313 291 264 259 248 251 234 219 217 225 223 212 208 212 218 214 214 210 203 210 205 199 199 199 202 208 210 216 250 274 273 268 260 256 266 281 266 260
323 319 316 311 303 293 294 286 270 256 247 241 218 221 229 232 223 220 216 219 224 220 211 207 210 202 208 210 207 209 214 226 221 226 258 272 269 257 263 289 293 289 283
323 320 303 291 286 282 288 289 273 259 241 231 226 223 227 235 237 227 221 221 227 229 217 211 209 209 210 208 210 209 204 203 206 214 242 254 260 247 224 248 277 281 293
321 312 302 299 297 290 285 269 255 251 255 244 235 234 228 228 235 225 220 222 227 234 222 215 215 217 221 218 217 206 198 202 207 220 232 250 247 232 236 247 260 276 289
302 294 300 308 302 289 274 250 238 247 257 254 248 245 247 245 256 252 248 223 224 235 226 225 219 213 221 227 228 221 212 208 210 220 236 237 242 239 242 239 244 263 275
299 301 304 303 296 287 276 256 247 247 252 262 259 249 253 260 268 261 262 243 225 233 224 223 229 221 223 212 223 226 228 231 226 219 223 232 229 224 221 233 236 243 259
308 306 307 303 293 289 272 249 243 246 242 245 255 250 250 265 274 273 274 252 237 241 231 223 224 219 220 214 212 218 224 227 227 223 223 228 226 211 213 226 235 255 278
318 304 298 296 295 287 266 251 237 236 245 247 254 246 246 267 276 279 275 240 245 251 245 231 225 222 234 230 213 210 219 229 237 232 232 232 231 228 215 202 208 228 260
311 306 301 296 286 279 259 251 239 237 246 257 266 257 249 257 271 276 272 232 242 247 246 230 232 239 240 234 214 202 213 225 212 214 232 241 230 218 221 216 210 222 246
309 311 316 313 298 286 273 252 236 244 252 256 269 272 261 261 269 271 264 243 235 236 240 235 230 244 244 244 237 219 224 217 198 197 206 212 212 205 212 212 213 219 228
318 320 321 319 313 315 312 294 256 230 245 262 271 286 276 270 274 264 260 261 264 240 238 236 237 245 250 250 248 235 222 203 186 195 210 220 220 226 223 214 210 210 221
325 323 322 323 323 328 324 314 303 266 242 261 263 274 284 284 281 288 283 279 274 264 251 252 254 248 242 231 241 224 197 189 194 208 220 230 227 215 204 199 186 155 134
323 321 323 326 328 335 327 322 312 293 270 270 267 271 286 297 297 295 287 286 290 286 280 258 253 238 235 235 221 203 193 202 207 211 212 214 199 205 223 221 227 227 254
320 320 323 323 321 327 324 319 299 282 263 260 260 263 270 281 292 295 292 285 273 268 284 274 223 202 218 213 210 211 202 195 213 208 201 202 211 220 232 224 223 233 240
320 321 319 317 314 316 316 321 321 312 318 307 297 288 292 292 302 306 310 311 303 290 292 214 234 232 228 227 221 235 241 223 220 213 205 204 207 214 225 233 233 220 231
307 310 310 313 311 311 312 313 319 331 340 340 333 328 320 320 320 319 324 331 328 328 318 252 253 242 238 238 231 229 247 242 219 207 210 209 207 212 215 219 222 226 231
302 301 305 301 301 301 304 309 313 321 329 331 337 338 337 338 337 338 342 354 356 357 328 282 267 263 246 240 244 249 248 241 219 211 207 211 213 218 222 223 223 226 231
311 310 305 307 302 299 301 311 317 318 315 319 332 337 340 343 349 354 2 11 347 323 313 303 294 283 278 261 253 251 242 240 232 223 222 224 221 218 228 230 231 235 239
311 316 318 313 311 309 309 311 313 314 313 319 323 322 332 342 348 347 352 347 330 315 309 302 304 295 277 264 257 245 241 247 241 231 231 231 230 225 229 235 232 232 236
309 311 315 316 313 307 306 301 299 303 304 307 312 320 321 326 320 318 318 315 304 298 299 296 296 295 286 277 259 251 243 245 247 240 237 234 229 234 237 236 236 234 233
304 304 308 306 305 305 301 295 291 289 291 293 304 313 318 324 313 303 300 300 295 294 291 285 284 278 269 266 262 257 253 247 247 247 244 245 241 239 239 236 235 236 234
303 305 306 304 299 299 306 309 302 295 292 290 297 303 304 295 288 288 292 294 295 296 289 280 276 276 275 272 261 247 246 248 243 236 236 241 241 238 237 237 235 240 243
292 293 296 299 297 290 287 289 288 287 286 286 289 288 285 280 280 282 283 286 288 288 286 280 273 275 279 281 279 270 260 258 247 232 226 229 236 240 239 240 241 243 244
287 285 285 284 285 285 286 285 285 284 286 289 289 287 285 285 286 286 283 286 288 288 285 285 281 279 278 280 280 276 274 276 266 247 230 229 230 233 234 236 239 243 243
291 283 282 283 281 278 278 281 283 284 283 285 286 284 283 283 287 287 288 290 293 296 294 294 290 287 283 283 281 280 284 284 278 266 242 230 229 233 231 235 234 237 236
Height
1475 1475 1474 1474 1475 1476 1477 1477 1479 1480 1481 1483 1485 1486 1488 1489 1491 1493 1495 1497 1499 1501 1503 1505 1507 1509 1510 1512 1514 1515 1516 1517 1516 1516 1517 1518 1519 1520 1521 1521 1521 1521 1521
1473 1472 1472 1472 1472 1473 1474 1474 1475 1476 1478 1479 1481 1482 1484 1485 1487 1489 1491 1493 1495 1496 1498 1500 1502 1504 1506 1507 1509 1510 1512 1512 1513 1512 1512 1514 1514 1515 1516 1516 1517 1517 1517
1470 1470 1470 1470 1469 1470 1470 1471 1472 1473 1474 1476 1477 1478 1479 1481 1483 1485 1487 1488 1490 1492 1494 1495 1497 1499 1500 1502 1504 1506 1507 1508 1508 1508 1508 1509 1509 1510 1511 1512 1512 1512 1512
1467 1467 1467 1467 1467 1466 1467 1468 1469 1470 1471 1472 1473 1474 1476 1477 1479 1480 1482 1484 1486 1487 1489 1491 1493 1494 1496 1498 1499 1501 1502 1503 1504 1504 1504 1504 1505 1506 1507 1507 1507 1508 1508
1464 1464 1464 1464 1464 1464 1464 1464 1465 1467 1468 1468 1469 1470 1472 1473 1474 1476 1478 1479 1481 1483 1484 1486 1488 1489 1491 1493 1495 1496 1497 1498 1499 1500 1500 1500 1500 1501 1502 1502 1503 1503 1503
1462 1461 1461 1461 1461 1461 1461 1461 1462 1463 1464 1465 1465 1466 1467 1469 1470 1472 1473 1475 1476 1478 1479 1481 1483 1484 1486 1488 1490 1491 1493 1494 1495 1495 1495 1495 1496 1497 1497 1498 1498 1498 1498
1459 1458 1458 1458 1458 1458 1457 1457 1458 1459 1460 1461 1462 1463 1463 1465 1466 1467 1469 1471 1472 1473 1474 1476 1477 1479 1481 1483 1484 1486 1487 1489 1490 1491 1491 1491 1492 1492 1493 1493 1493 1493 1493
1456 1456 1455 1455 1454 1454 1454 1453 1454 1456 1457 1458 1458 1459 1460 1460 1462 1463 1464 1466 1467 1468 1470 1471 1472 1474 1476 1477 1479 1480 1482 1483 1485 1486 1487 1487 1488 1488 1489 1489 1489 1489 1488
1453 1453 1452 1452 1451 1451 1450 1451 1451 1452 1453 1454 1455 1456 1456 1456 1458 1459 1460 1461 1463 1464 1465 1467 1468 1469 1470 1472 1474 1475 1476 1478 1479 1480 1481 1482 1483 1484 1484 1485 1484 1484 1483
1451 1450 1450 1449 1448 1447 1447 1448 1448 1449 1450 1450 1451 1452 1452 1453 1454 1455 1457 1458 1458 1459 1461 1462 1464 1465 1466 1467 1469 1470 1471 1472 1474 1475 1476 1477 1477 1478 1479 1480 1479 1480 1479
1449 1448 1447 1446 1445 1444 1444 1445 1445 1446 1446 1447 1447 1448 1449 1449 1450 1452 1453 1454 1455 1455 1456 1457 1459 1460 1462 1463 1464 1465 1466 1468 1469 1470 1470 1471 1472 1473 1473 1474 1474 1475 1474
1447 1445 1444 1443 1443 1442 1441 1441 1442 1442 1443 1443 1444 1444 1445 1446 1446 1447 1449 1451 1451 1452 1452 1453 1454 1456 1457 1458 1459 1460 1462 1463 1464 1465 1465 1466 1467 1467 1468 1468 1469 1469 1469
1445 1443 1442 1441 1440 1439 1439 1439 1439 1439 1439 1440 1440 1440 1441 1442 1443 1444 1446 1447 1448 1448 1449 1450 1451 1452 1453 1454 1455 1456 1457 1458 1459 1460 1460 1461 1462 1462 1463 1463 1464 1464 1464
1443 1441 1440 1438 1437 1437 1436 1436 1436 1436 1436 1436 1436 1437 1437 1438 1439 1440 1441 1442 1443 1444 1445 1445 1447 1448 1448 1449 1451 1452 1453 1454 1454 1455 1455 1456 1457 1457 1458 1458 1458 1459 1459
1441 1439 1438 1436 1435 1434 1434 1434 1433 1433 1433 1433 1434 1434 1434 1435 1436 1438 1438 1438 1439 1440 1440 1441 1442 1443 1444 1445 1446 1447 1448 1449 1450 1450 1451 1451 1452 1452 1453 1453 1454 1454 1454
1439 1437 1436 1435 1434 1433 1432 1432 1431 1431 1431 1431 1432 1432 1432 1433 1434 1434 1435 1436 1436 1436 1437 1437 1438 1438 1439 1440 1441 1442 1443 1444 1445 1446 1446 1446 1447 1447 1448 1448 1449 1449 1449
1437 1436 1434 1433 1432 1431 1430 1430 1429 1429 1429 1429 1429 1430 1430 1431 1431 1431 1431 1432 1432 1433 1433 1434 1434 1435 1435 1436 1437 1437 1438 1439 1440 1441 1441 1442 1442 1443 1443 1443 1444 1444 1444
1436 1434 1433 1432 1431 1430 1429 1429 1428 1427 1427 1427 1428 1428 1428 1428 1428 1428 1429 1429 1429 1429 1430 1430 1431 1431 1431 1432 1432 1433 1434 1435 1436 1436 1437 1437 1438 1438 1438 1439 1439 1440 1440
1434 1433 1432 1431 1430 1429 1428 1428 1427 1426 1426 1425 1425 1426 1426 1426 1425 1425 1425 1425 1426 1426 1427 1427 1427 1428 1428 1428 1429 1429 1430 1430 1431 1431 1432 1433 1433 1434 1434 1434 1435 1435 1435
1433 1432 1431 1430 1429 1428 1427 1427 1426 1425 1425 1424 1424 1424 1423 1423 1422 1422 1423 1423 1423 1424 1424 1424 1424 1424 1425 1425 1425 1426 1426 1426 1427 1427 1427 1428 1429 1429 1429 1430 1430 1431 1431
1432 1431 1430 1429 1428 1427 1426 1426 1425 1424 1423 1423 1423 1422 1422 1421 1420 1420 1421 1421 1421 1421 1421 1421 1421 1421 1421 1421 1422 1422 1422 1422 1423 1423 1423 1424 1424 1424 1425 1426 1426 1426 1426
1430 1429 1428 1428 1427 1426 1425 1425 1424 1423 1422 1422 1421 1421 1420 1420 1419 1419 1419 1418 1418 1418 1418 1418 1418 1418 1418 1418 1418 1418 1418 1418 1419 1419 1419 1420 1420 1420 1421 1421 1421 1422 1422
1429 1428 1427 1426 1425 1425 1424 1423 1422 1422 1421 1420 1420 1419 1418 1417 1417 1417 1416 1416 1416 1415 1415 1415 1415 1414 1414 1415 1415 1415 1415 1415 1415 1415 1415 1416 1416 1416 1416 1416 1416 1417 1417
1427 1426 1425 1424 1423 1423 1422 1421 1421 1420 1419 1418 1418 1417 1416 1415 1415 1414 1414 1413 1413 1412 1412 1412 1411 1411 1411 1411 1411 1411 1411 1411 1411 1411 1411 1411 1411 1412 1412 1412 1412 1412 1412
1425 1424 1423 1422 1421 1420 1420 1419 1418 1418 1417 1416 1415 1414 1414 1413 1412 1412 1411 1410 1410 1409 1409 1408 1408 1407 1407 1407 1407 1407 1407 1407 1407 1407 1407 1407 1407 1407 1407 1407 1407 1407 1407
1422 1421 1420 1419 1419 1418 1417 1416 1415 1415 1414 1413 1412 1411 1410 1409 1409 1408 1407 1407 1406 1406 1405 1405 1404 1404 1403 1403 1403 1403 1402 1402 1402 1402 1402 1402 1402 1402 1402 1402 1402 1402 1402